Regional Weather Roundup
Issued by NWS Spokane, WA

Home | Current Version | Previous Version | Text Only | Print | Product List | Glossary On
Versions: 1 2 3 4 5 6 7 8 9 10 11 12 13 14 15 16 17 18 19 20 21 22 23 24 25 26 27 28 29 30 31 32 33 34 35 36 37 38 39 40 41 42 43 44 45 46 47 48 49 50
000
NZUS01 KOTX 291025
RWROTX

Eastern Washington/Northern Idaho Roundup
National Weather Service, Spokane WA
300 AM PDT WED MAR 29 2017

Note: "fair" indicated few or no clouds below 12,000 feet with no
significant weather and/or obstructions to visibility.

...Northeast Washington and Northern Idaho Panhandle...

CITY           SKY/WX    TMP DP  RH WIND       PRES   REMARKS
Spokane Intl   CLOUDY    42  36  79 SE9       30.10F
Spokane Downto CLOUDY    44  38  79 NE3       30.12F
Coeur d Alene  CLOUDY    40  37  89 S6        30.13F
Deer Park      CLOUDY    39  37  92 CALM      30.11F
Sandpoint      DRIZZLE   37  37 100 CALM      30.13F
Bonners Ferry  CLOUDY    39  36  87 CALM      30.10F

...Southeast Washington and southern Idaho Panhandle...

CITY           SKY/WX    TMP DP  RH WIND       PRES   REMARKS
Walla Walla    LGT RAIN  49  44  83 SE5       30.12F
Pullman/Moscow CLOUDY    42  37  82 SE7       30.14F
Lewiston       CLOUDY    46  40  79 SE3       30.15F
Lowell           N/A     41  39  93 NW3       30.23
Grangeville    FAIR      37  37 100 S5        30.13F

...Columbia Basin...

CITY           SKY/WX    TMP DP  RH WIND       PRES   REMARKS
Ephrata        LGT RAIN  44  38  79 SE6       30.07F
Moses Lake     LGT RAIN  45  41  86 SE3       30.09F
Pasco            N/A    N/A N/A N/A MISG      30.13F
Richland       LGT RAIN  49  44  83 S5        30.12F
Hermiston      LGT RAIN  47  46  97 CALM      30.11F
Pendleton      LGT RAIN  45  43  93 E9        30.09F

...East Slopes Cascades...

CITY           SKY/WX    TMP DP  RH WIND       PRES   REMARKS
The Dalles     LGT RAIN  47  45  93 NW6       30.11F
Yakima         LGT RAIN  47  42  83 S6        30.08F
Ellensburg     LGT RAIN  43  40  89 CALM      30.05F
Wenatchee      LGT RAIN  43  41  93 CALM      30.05F
Omak           LGT RAIN  47  38  71 S12       30.06F
Chelan           N/A     43  36  75 MISG        N/A
Sunnyside      LGT RAIN  44  43  97 E3        30.10F

...Southern British Columbia...

CITY           SKY/WX    TMP DP  RH WIND       PRES   REMARKS
Penticton      LGT RAIN  46  37  71 SE7       30.01F
Cranbrook      MOCLDY    39  32  75 SE5       30.06F
Osoyoos          N/A     50  39  66 S3          N/A
Creston          N/A     39  37  93 NW2         N/A

...Western Montana...

CITY           SKY/WX    TMP DP  RH WIND       PRES   REMARKS
Kalispell      CLOUDY    40  33  76 S7        30.13S
Missoula       CLOUDY    40  33  76 W5        30.18F

...Neighboring Cities...

CITY           SKY/WX    TMP DP  RH WIND       PRES   REMARKS
Seattle        LGT RAIN  46  45  96 SE10      30.02F
Portland       LGT RAIN  47  45  93 SE8       30.11F FOG
Boise          MOCLDY    41  31  67 SE9       30.21F
Great Falls    CLOUDY    41  26  55 SW14      30.05S
Calgary        PTCLDY    36  18  48 CALM      29.90R



USA.gov is the U.S. government's official web portal to all federal, state and local government web resources and services.